Temp
4 5 5 5 5 5 6 6 6 6 6 6 7 7 7 6 6 6 6 6 6 6 5 5 5 4 4 4 4 5 5 5 5 4 4 5 6 6 6 6 6 6 7
4 4 4 4 5 5 5 6 6 6 6 7 6 6 6 6 6 6 6 6 6 5 5 5 5 5 4 5 4 4 3 3 4 4 3 4 5 5 5 5 5 6 6
4 4 4 4 5 5 5 5 5 6 6 7 6 6 6 6 6 6 7 6 6 6 5 5 5 5 5 4 4 4 3 4 3 3 3 3 3 3 4 4 5 4 5
3 3 4 4 4 5 5 5 5 5 6 6 6 6 7 7 7 6 6 6 6 6 6 5 5 5 5 5 3 3 4 4 3 3 2 2 2 3 4 3 3 4 4
2 3 3 3 3 4 4 4 5 5 5 5 6 6 6 6 6 6 6 6 6 5 6 5 5 4 5 5 4 4 4 4 3 3 3 3 3 3 3 3 2 3 3
2 2 2 2 3 3 4 4 4 5 5 5 6 6 6 6 6 6 6 6 6 6 6 6 5 5 5 5 4 3 3 4 3 3 2 2 2 3 3 2 2 3 2
1 1 1 2 2 2 3 3 3 4 5 5 5 5 6 5 5 5 6 5 5 6 5 5 5 5 5 5 4 4 3 3 3 3 2 2 2 2 2 1 2 2 2
0 1 1 1 2 2 2 3 3 3 4 4 5 5 5 5 5 5 5 5 5 5 5 5 4 4 4 4 4 3 4 2 3 3 2 2 2 2 2 2 1 2 2
-1 -0 0 1 1 1 2 2 2 3 3 4 4 4 4 5 5 5 5 5 5 5 5 4 4 4 4 4 3 3 3 3 3 1 2 2 2 2 2 2 1 2 1
-3 -2 -1 -0 0 1 1 1 1 2 2 3 3 4 4 4 5 5 5 5 5 5 5 4 3 3 3 3 3 2 3 3 3 2 1 2 2 2 1 1 1 1 1
-5 -3 -2 -1 -0 0 1 1 1 2 2 3 3 4 4 5 5 5 5 5 5 5 5 4 3 3 3 3 3 3 3 2 2 2 1 1 1 1 1 1 0 1 0
-7 -5 -4 -2 -1 -1 -0 0 1 1 2 2 3 3 4 4 4 5 5 5 5 5 4 4 3 2 2 2 2 2 2 2 2 2 1 1 1 1 1 0 0 0 0
-7 -6 -5 -4 -3 -2 -1 -1 0 1 1 1 2 2 3 3 3 4 4 4 4 4 4 3 3 2 2 2 2 2 2 2 2 1 1 1 1 0 0 -0 -0 -1 -1
-9 -8 -6 -5 -4 -3 -2 -1 -1 -0 0 1 1 2 2 2 2 2 2 3 3 3 2 2 1 1 1 1 1 1 1 1 1 1 1 0 0 0 -0 -1 -1 -1 -1
-10 -9 -8 -7 -6 -5 -4 -3 -2 -1 -1 -0 -0 0 0 0 -0 -0 0 1 1 2 1 -1 1 -1 -1 0 0 0 0 0 0 0 0 0 0 -0 -0 -0 -0 -1 -1
-12 -10 -9 -8 -7 -6 -5 -4 -4 -3 -3 -2 -1 -1 -2 -2 -1 -2 -2 -2 -2 -1 -1 -2 -1 -3 -1 -1 -1 -1 -1 -1 -0 -0 0 0 0 -0 -0 -1 -1 -2 -1
-13 -12 -11 -10 -9 -8 -7 -6 -5 -5 -5 -5 -3 -2 -3 -3 -3 -3 -3 -3 -4 -4 -3 -2 -2 -2 -1 -2 -1 -1 -1 -1 -0 -0 -0 -0 0 0 0 0 -1 -3 -2
-14 -13 -12 -11 -10 -9 -9 -8 -7 -7 -6 -6 -5 -4 -4 -3 -3 -4 -3 -4 -3 -3 -4 -3 -3 -3 -2 -1 -1 -1 -1 -0 -0 -0 -0 0 0 1 1 -1 -2 -1 -1
-14 -13 -12 -12 -11 -11 -10 -9 -8 -7 -7 -6 -6 -6 -6 -5 -5 -5 -4 -3 -4 -4 -4 -4 -4 -3 -3 -2 -1 -1 -2 -1 -0 0 0 -0 -0 -0 -1 -1 -3 -2 -3
-15 -14 -13 -12 -12 -12 -11 -10 -9 -8 -8 -7 -7 -6 -5 -5 -5 -5 -5 -4 -4 -4 -3 -4 -4 -3 -3 -4 -3 -4 -3 -2 -1 -0 -0 -1 -1 -2 -3 -3 -2 -2 -2
-17 -16 -15 -13 -13 -13 -12 -11 -10 -9 -9 -8 -7 -7 -6 -5 -6 -5 -5 -5 -5 -4 -4 -4 -4 -3 -3 -4 -4 -2 -3 -3 -2 -1 -1 -2 -3 -3 -4 -4 -3 -2 -2
-17 -16 -16 -15 -14 -13 -12 -12 -11 -10 -9 -9 -8 -7 -7 -6 -6 -6 -6 -5 -4 -4 -4 -4 -3 -4 -3 -3 -3 -3 -3 -3 -3 -2 -2 -3 -3 -3 -3 -3 -4 -2 -3
-17 -17 -16 -16 -16 -15 -14 -13 -12 -11 -11 -10 -9 -8 -7 -7 -6 -6 -7 -6 -5 -5 -5 -4 -4 -4 -3 -4 -3 -3 -3 -3 -3 -3 -3 -3 -3 -3 -3 -3 -3 -3 -2
-17 -17 -17 -16 -16 -15 -14 -13 -13 -12 -12 -11 -10 -9 -8 -8 -7 -6 -6 -6 -6 -5 -5 -4 -4 -4 -4 -3 -3 -3 -3 -3 -3 -3 -3 -3 -3 -3 -3 -3 -3 -2 -2
-17 -17 -17 -16 -16 -16 -15 -14 -13 -13 -12 -11 -11 -10 -9 -8 -8 -7 -6 -6 -6 -6 -5 -5 -5 -4 -4 -4 -4 -4 -3 -4 -3 -3 -4 -3 -3 -3 -3 -3 -3 -3 -3
-18 -17 -17 -17 -16 -16 -15 -15 -14 -13 -13 -12 -12 -11 -10 -9 -9 -8 -8 -6 -7 -7 -7 -7 -6 -7 -5 -5 -4 -4 -4 -4 -3 -3 -3 -3 -3 -4 -3 -3 -4 -3 -3
Height
3087 3093 3098 3103 3108 3112 3117 3121 3126 3130 3134 3139 3143 3146 3150 3153 3156 3160 3163 3167 3170 3173 3175 3177 3179 3181 3183 3185 3187 3188 3190 3191 3193 3194 3196 3196 3198 3199 3201 3201 3201 3202 3202
3080 3086 3092 3097 3103 3108 3113 3118 3122 3127 3131 3135 3139 3143 3146 3150 3154 3157 3160 3162 3165 3168 3171 3173 3176 3178 3180 3181 3184 3186 3188 3189 3190 3192 3193 3194 3196 3197 3197 3199 3200 3200 3200
3074 3079 3085 3090 3096 3102 3108 3113 3118 3122 3126 3130 3134 3138 3141 3146 3150 3153 3155 3158 3161 3164 3167 3169 3172 3174 3176 3178 3180 3182 3184 3185 3186 3187 3189 3191 3192 3193 3194 3196 3197 3198 3198
3068 3073 3078 3084 3089 3095 3101 3107 3112 3117 3122 3126 3130 3134 3138 3142 3146 3149 3152 3155 3158 3160 3162 3165 3167 3170 3172 3174 3175 3178 3179 3180 3182 3183 3184 3187 3188 3189 3191 3192 3193 3194 3195
3060 3066 3072 3078 3084 3089 3094 3100 3106 3111 3115 3120 3124 3128 3133 3137 3140 3143 3145 3149 3152 3155 3158 3160 3162 3165 3167 3169 3170 3172 3173 3175 3177 3178 3180 3181 3183 3184 3185 3187 3189 3190 3190
3052 3059 3065 3071 3076 3083 3089 3094 3099 3104 3109 3113 3118 3122 3126 3131 3134 3137 3140 3143 3146 3149 3152 3154 3156 3159 3162 3163 3165 3166 3167 3169 3171 3172 3174 3176 3177 3179 3180 3182 3183 3184 3185
3044 3051 3058 3064 3070 3076 3082 3088 3093 3097 3102 3106 3111 3115 3119 3123 3127 3131 3133 3136 3139 3142 3146 3148 3151 3153 3156 3157 3159 3161 3161 3163 3165 3167 3169 3171 3172 3173 3174 3175 3177 3178 3179
3036 3044 3050 3056 3062 3068 3074 3080 3085 3090 3094 3099 3103 3108 3112 3116 3120 3123 3127 3130 3132 3136 3139 3141 3143 3145 3148 3150 3151 3154 3155 3157 3158 3159 3162 3164 3166 3167 3168 3169 3170 3170 3172
3029 3036 3042 3048 3055 3061 3066 3072 3077 3082 3087 3091 3096 3100 3105 3108 3112 3116 3119 3122 3125 3128 3131 3133 3135 3138 3140 3142 3143 3145 3148 3150 3151 3153 3155 3157 3159 3161 3161 3162 3163 3164 3164
3022 3028 3034 3041 3047 3054 3060 3065 3070 3074 3079 3083 3087 3091 3095 3100 3103 3107 3110 3113 3116 3119 3122 3125 3127 3130 3132 3134 3135 3138 3140 3142 3145 3146 3148 3150 3153 3154 3155 3155 3156 3158 3158
3015 3021 3028 3034 3041 3047 3052 3058 3062 3067 3071 3075 3079 3083 3086 3090 3094 3097 3100 3103 3106 3109 3112 3115 3118 3120 3123 3126 3128 3130 3132 3135 3137 3139 3141 3143 3145 3146 3148 3148 3150 3151 3152
3010 3015 3021 3027 3034 3039 3045 3050 3055 3059 3063 3066 3070 3074 3077 3080 3083 3086 3090 3092 3095 3098 3101 3104 3106 3110 3114 3117 3119 3122 3124 3127 3129 3132 3133 3136 3137 3138 3140 3142 3143 3145 3147
3004 3010 3015 3021 3027 3032 3038 3043 3047 3051 3054 3058 3061 3064 3067 3070 3073 3076 3079 3082 3085 3087 3090 3092 3095 3100 3105 3108 3111 3113 3116 3119 3121 3123 3125 3128 3129 3131 3133 3135 3136 3138 3140
2997 3003 3009 3014 3019 3025 3030 3035 3039 3043 3046 3049 3052 3055 3058 3061 3063 3066 3069 3072 3074 3078 3080 3083 3087 3090 3095 3098 3102 3105 3108 3110 3112 3115 3116 3119 3121 3123 3126 3127 3129 3131 3131
2993 2997 3002 3007 3013 3018 3022 3027 3031 3035 3038 3041 3044 3047 3050 3053 3055 3057 3059 3063 3066 3069 3072 3075 3077 3082 3086 3089 3094 3096 3099 3101 3103 3106 3108 3110 3113 3115 3117 3117 3119 3121 3122
2990 2993 2997 3002 3006 3011 3015 3019 3023 3027 3031 3034 3037 3040 3043 3046 3048 3051 3054 3056 3058 3061 3064 3067 3071 3074 3077 3081 3086 3088 3090 3092 3094 3096 3099 3102 3104 3106 3108 3108 3109 3111 3111
2986 2989 2993 2997 3000 3004 3008 3012 3016 3019 3023 3026 3028 3032 3035 3037 3040 3044 3047 3049 3052 3054 3058 3060 3063 3066 3069 3073 3077 3079 3080 3082 3084 3087 3090 3092 3095 3096 3097 3098 3099 3100 3102
2982 2985 2988 2991 2995 2998 3002 3005 3009 3012 3015 3018 3020 3022 3025 3028 3031 3035 3039 3042 3044 3048 3051 3053 3056 3058 3061 3065 3068 3070 3070 3072 3075 3078 3081 3082 3084 3086 3086 3087 3089 3091 3093
2978 2981 2983 2986 2990 2993 2996 2999 3002 3004 3007 3010 3013 3015 3018 3021 3022 3026 3030 3032 3036 3039 3042 3045 3048 3050 3053 3055 3057 3058 3060 3063 3067 3070 3071 3072 3073 3077 3077 3078 3079 3081 3084
2975 2977 2978 2980 2983 2986 2989 2992 2994 2997 2999 3002 3005 3007 3010 3013 3016 3018 3022 3025 3026 3031 3033 3036 3039 3043 3046 3048 3050 3051 3052 3055 3059 3061 3063 3064 3066 3068 3069 3069 3072 3073 3079
2973 2973 2973 2975 2977 2980 2982 2984 2987 2989 2992 2993 2996 2999 3002 3005 3007 3011 3013 3016 3018 3021 3024 3027 3030 3035 3037 3040 3043 3044 3046 3048 3050 3051 3054 3056 3059 3060 3061 3062 3063 3067 3072
2970 2969 2970 2971 2972 2973 2976 2977 2980 2981 2983 2985 2988 2991 2993 2995 2998 3002 3005 3008 3011 3012 3014 3017 3022 3025 3029 3031 3034 3037 3039 3041 3042 3045 3046 3049 3051 3052 3053 3055 3057 3060 3062
2965 2965 2967 2968 2968 2968 2969 2970 2971 2973 2974 2977 2979 2983 2985 2987 2989 2992 2995 2998 3003 3005 3008 3009 3011 3016 3018 3022 3026 3027 3029 3031 3034 3036 3038 3040 3041 3043 3044 3046 3049 3052 3053
2962 2963 2963 2964 2963 2962 2962 2964 2965 2966 2967 2969 2971 2974 2977 2979 2980 2983 2986 2989 2993 2996 2998 3000 3002 3006 3009 3012 3014 3017 3019 3023 3024 3027 3029 3032 3033 3034 3036 3038 3040 3043 3046
2959 2959 2959 2958 2958 2958 2957 2957 2959 2959 2960 2961 2963 2965 2967 2969 2971 2974 2977 2980 2983 2986 2988 2990 2994 2997 2999 3003 3004 3007 3009 3013 3016 3017 3018 3021 3022 3025 3027 3029 3032 3035 3037
2953 2952 2952 2952 2952 2953 2952 2952 2952 2952 2953 2954 2956 2956 2958 2960 2962 2964 2967 2970 2973 2975 2978 2980 2983 2986 2990 2993 2995 2998 3000 3003 3007 3007 3009 3012 3014 3016 3019 3022 3024 3026 3029
Wind_Speed
38 38 38 38 38 37 34 33 32 32 30 28 26 25 23 21 20 19 18 17 19 21 22 23 23 21 20 19 20 19 17 17 15 13 14 13 12 10 7 7 7 7 8
43 41 42 42 42 40 37 35 34 33 32 30 28 25 23 21 19 18 18 18 19 19 19 19 19 20 21 21 19 18 14 18 17 16 15 16 15 13 12 12 9 7 8
47 44 42 44 44 42 40 38 36 34 33 32 31 29 28 26 24 23 23 23 22 21 21 22 20 19 20 22 23 21 22 22 22 19 23 24 19 17 14 13 12 10 10
51 48 45 44 44 43 41 39 38 36 35 32 31 30 29 27 26 25 25 24 24 23 23 24 24 24 23 25 23 28 25 25 24 23 26 26 26 27 23 21 19 17 15
53 51 49 46 45 44 43 41 40 38 37 36 34 33 32 29 29 28 27 25 25 26 26 27 26 27 26 27 28 29 26 26 25 25 28 28 28 27 26 25 23 20 18
55 54 52 49 47 45 44 44 43 41 40 39 37 36 33 32 32 30 30 28 27 27 27 27 29 30 30 29 29 27 30 28 29 25 28 28 28 27 27 26 30 30 27
57 56 54 52 49 47 45 43 43 42 41 41 41 39 37 35 33 33 31 31 29 29 27 29 30 31 32 30 30 32 31 32 30 32 30 29 29 28 27 31 33 33 31
59 59 57 54 51 49 47 44 42 42 40 39 38 37 37 37 36 36 35 34 34 33 32 33 34 34 34 33 33 33 33 35 34 32 36 31 29 29 29 32 27 30 31
56 57 57 56 53 50 47 44 41 39 39 38 39 39 39 39 39 38 39 39 39 39 39 39 39 38 38 37 36 34 33 34 34 36 30 34 32 30 30 30 31 30 33
50 52 53 53 51 49 46 43 41 40 39 39 39 40 40 41 41 41 42 42 42 42 42 42 41 41 40 39 38 39 36 34 34 34 35 33 32 31 30 30 30 30 31
45 47 48 49 48 46 44 43 42 41 40 42 43 44 45 44 44 43 43 44 44 44 45 45 44 45 43 40 39 38 36 35 34 33 33 33 31 30 29 30 29 29 28
40 40 43 45 46 45 45 43 42 40 40 41 43 44 46 48 49 49 49 49 49 48 47 46 47 47 44 41 40 38 37 35 34 34 34 32 31 31 29 29 29 29 28
40 40 39 39 41 43 43 41 38 36 36 36 36 37 39 40 42 43 44 45 46 45 44 42 45 46 44 42 40 39 38 36 35 34 34 31 32 31 31 30 31 32 32
33 36 38 39 39 40 40 38 37 37 36 35 36 35 36 38 41 41 42 42 41 40 39 39 38 39 44 43 40 39 38 37 36 35 35 33 33 33 33 34 35 36 39
27 30 31 32 34 35 37 38 38 37 36 34 33 32 33 32 31 29 33 34 35 36 37 35 37 39 37 41 40 39 38 38 37 37 36 35 34 34 35 37 38 39 42
23 27 29 30 31 34 36 37 36 35 33 32 32 31 30 29 30 29 27 30 31 34 36 37 38 35 41 37 39 39 40 39 39 39 37 37 37 38 38 38 37 36 31
20 23 27 30 31 31 32 33 32 31 31 31 31 31 31 31 30 28 31 27 32 36 28 29 38 43 44 41 41 41 42 42 41 38 38 39 40 41 43 42 34 37 34
17 22 24 25 29 31 31 30 30 30 31 32 31 30 30 33 36 37 32 32 34 34 39 30 37 38 41 41 41 43 44 43 41 38 38 40 39 38 37 36 38 43 41
16 18 20 21 23 25 29 32 33 33 32 32 31 31 30 29 29 37 45 35 39 37 40 37 36 33 35 35 36 37 35 34 34 34 34 36 35 31 32 33 31 28 30
13 15 18 21 20 21 24 27 29 30 32 32 32 31 34 36 31 25 41 47 40 31 38 35 35 28 35 34 28 32 31 32 31 31 31 30 32 32 31 35 35 39 31
11 14 18 20 19 19 22 24 27 28 28 29 30 32 32 32 32 35 38 36 35 36 39 36 31 36 27 29 30 32 33 34 31 29 30 28 24 27 29 29 34 28 33
9 11 15 17 20 23 25 24 25 27 28 29 28 29 31 32 31 31 35 35 35 32 28 40 41 37 36 38 34 36 35 34 31 27 25 25 27 31 33 32 27 27 33
8 9 12 14 15 16 21 25 26 26 26 28 28 31 31 30 30 30 31 37 40 35 30 29 36 41 40 32 37 41 36 35 33 32 28 26 27 30 32 36 32 31 32
10 11 11 14 15 15 16 20 23 23 25 27 28 32 33 33 32 33 33 32 40 38 36 29 34 29 33 34 31 38 29 36 35 32 24 26 30 32 37 36 35 36 37
13 14 13 14 15 17 17 19 22 22 24 25 27 29 30 33 34 34 34 36 36 41 43 38 33 35 33 37 33 31 31 36 31 33 33 33 33 34 36 35 38 41 34
14 15 16 15 16 17 16 18 21 21 22 24 26 27 29 32 32 33 35 36 37 36 38 36 38 30 31 33 38 37 37 35 40 32 31 37 31 33 31 33 32 40 42
Wind_Direction
212 213 214 210 206 206 208 206 202 201 202 204 205 205 210 211 212 216 224 220 221 218 223 229 236 231 232 237 243 247 252 256 255 262 268 271 270 279 294 297 294 283 277
213 215 217 215 211 211 211 210 209 207 205 206 210 214 217 219 220 224 229 234 233 231 228 229 236 237 245 242 243 243 245 255 267 264 271 265 265 271 281 279 284 296 290
214 215 215 217 217 214 212 210 211 213 213 214 215 215 218 218 218 220 226 230 235 238 240 240 244 244 247 246 241 245 252 261 261 259 259 255 265 266 274 273 267 276 286
213 216 217 215 215 216 216 213 213 215 217 222 225 226 227 225 226 228 227 232 236 240 243 245 248 247 252 248 240 255 253 256 255 250 248 266 259 266 259 264 272 280 273
213 215 218 218 216 216 218 219 218 220 223 225 227 231 232 233 229 229 231 229 230 233 236 241 245 244 251 254 255 252 255 257 254 256 256 261 259 258 261 264 269 269 275
213 216 219 221 222 222 221 222 226 227 228 228 230 230 232 232 232 231 233 236 238 239 242 243 243 246 247 249 249 253 256 258 255 250 258 260 263 264 267 250 262 273 271
211 214 218 222 225 227 228 228 230 231 231 232 233 233 229 225 228 233 235 238 243 247 250 250 249 248 248 250 250 251 254 258 256 257 259 261 265 265 266 258 261 262 263
210 215 218 222 224 228 231 233 233 236 232 230 228 228 228 227 229 230 235 241 246 248 247 246 245 245 245 246 249 251 253 257 256 260 259 258 263 264 263 267 260 260 256
208 212 215 220 225 229 231 233 233 232 235 237 235 233 232 232 233 237 240 244 246 248 248 246 246 245 244 245 247 251 251 253 257 251 254 258 261 260 263 264 262 265 262
207 210 214 219 222 226 230 234 237 238 239 238 237 238 238 239 242 245 246 248 250 251 251 249 247 246 244 246 249 247 251 252 253 258 256 258 260 261 260 260 261 263 265
207 210 213 217 222 225 230 233 237 240 244 245 245 246 246 247 247 247 248 249 250 250 252 249 245 243 242 245 248 250 252 252 252 253 254 256 257 256 257 258 256 259 262
212 212 215 219 223 227 232 235 239 242 244 245 246 246 246 247 247 248 249 252 253 253 252 248 244 241 241 243 246 248 249 251 252 253 253 253 252 254 251 254 257 258 256
215 218 218 219 223 226 231 233 234 237 237 237 240 243 245 247 248 247 248 249 249 250 248 246 242 239 238 240 243 245 247 250 251 252 251 250 250 249 252 253 256 258 260
211 216 219 221 223 225 227 230 233 233 235 241 248 251 252 249 247 247 246 246 245 244 245 239 237 237 235 237 239 242 246 249 250 250 251 250 248 251 253 256 258 259 258
212 213 215 217 218 220 223 228 230 233 237 241 245 249 251 244 237 241 241 240 240 239 236 238 237 231 232 236 236 241 245 248 250 252 252 249 251 254 258 260 260 261 257
218 217 218 219 222 225 226 229 231 234 235 239 244 245 242 241 249 242 223 246 242 240 236 228 225 242 234 241 240 242 245 249 251 252 252 252 254 258 264 264 264 271 252
230 229 227 226 226 229 231 232 231 231 233 238 243 241 237 242 243 240 245 245 241 240 235 236 238 229 236 243 244 245 246 250 250 250 252 255 259 263 266 264 251 257 249
229 236 237 235 232 232 232 232 230 229 232 237 247 247 248 237 239 226 233 234 227 235 235 245 240 240 242 243 245 249 251 251 250 248 252 257 260 264 266 257 248 248 249
228 228 231 232 232 232 235 237 238 238 239 239 243 236 232 246 251 237 234 240 238 237 247 242 241 245 249 249 249 245 245 248 250 252 255 256 256 257 258 259 250 250 245
235 234 232 234 234 235 233 233 235 235 237 239 241 240 237 237 236 230 227 238 245 246 240 235 246 239 247 248 244 242 243 249 254 258 256 251 254 254 252 249 250 242 240
252 245 236 238 239 238 238 236 236 235 236 236 237 238 242 245 249 241 250 256 253 244 242 246 240 225 230 240 239 244 246 252 258 262 256 257 258 245 254 250 245 234 235
256 251 250 243 243 244 242 242 243 238 237 237 238 239 240 243 247 247 237 239 232 233 243 243 243 244 242 244 238 248 246 258 257 261 251 244 246 241 242 243 240 239 240
279 269 264 258 254 250 248 245 245 248 245 242 241 241 241 239 242 247 246 250 240 244 240 230 237 241 230 253 240 247 246 246 255 255 246 245 243 238 237 242 233 242 243
274 272 271 275 273 267 257 256 252 253 250 249 246 244 243 241 239 241 245 249 245 237 225 225 227 229 239 231 227 232 227 241 251 248 243 252 241 237 245 242 238 239 243
270 269 266 264 266 266 266 261 256 256 254 253 251 250 248 245 242 242 242 242 246 247 251 250 240 229 229 238 242 244 244 236 249 241 237 249 252 246 248 247 241 236 241
280 275 271 267 266 265 263 265 265 262 258 259 255 252 250 249 247 245 247 244 244 246 248 252 252 252 248 248 246 247 250 249 243 246 251 244 255 248 247 250 246 249 245